STARLINK-36344, 67710

Orbit data source: Space-Track

STARLINK-36344, 67710 is a payload satellite owned by SpaceX/Seattle (US) in SSO that was launched on Sat, 07 Feb 2026 UTC via an FALCON 9 launch vehicle from the Air Force Western Test Range (AFWTR). Payload-class satellites include a variety of spacecraft equipped with specific instruments for various scientific and technological missions. These include communications satellites like Starlink; space stations such as the ISS; scientific satellites like the Hubble; Earth observation satellites from companies like Planet Labs, Umbra, and HawkEye 360; GPS; miniature CubeSats for education and research; and military/defense satellites.

Loading next visibility...
Identifier
67710, 2026-025T
Orbit
SSO
Country
Flag of USUS
Related business
Manufacturer
SpaceX/Seattle
Mission
Operational spacecraft
Bus & Motor
STARLINK V2MO, Unknown motor
Mass
575 kg wet, ~530 kg dry
Launch date (UTC)
2026-02-07 (1 month ago)
Launch vehicle
FALCON 9
Launch site
Air Force Western Test Range (AFWTR)
Object type
Payload
Rocket body
Debris
Shape & HBR
Unknown
Radar Cross Section
RCS unknown

Expand to show TLE details & history
Last TLE update: 11 hours ago

TLE from 11 hours ago
0 STARLINK-36344
1 67710U 26025T   26071.85737457  .00255351  00000-0  16651-2 0  9990
2 67710  97.2851 183.6674 0001877  68.2521 291.8944 15.75148747  6458
Epoch: 2026-03-12T20:34Z
TLE epoch observation values (Epoch: 2026-03-12T20:34:37.162Z)
Latitude
-0.00003°
Longitude
64.51132°
Altitude
346.906 km
Speed
7.701 km/s
True Right ascension
12h 14m 40s
True Declination
0° 00' 00"
Sunlit
Object was in full shadow at epoch
Visualization orbit readout
Latitude
Unknown
Longitude
Unknown
Altitude
Unknown
Speed
Unknown
Apparent Right ascension
Unknown
Apparent Declination
Unknown
Sunlit
N/A
Visualization observer readout
Local Sidereal Time
12:08:56
Azimuth
Unknown
Elevation
Unknown
Doppler factor
Unknown
Orbital elements
Apogee altitude
342.357 km
Perigee altitude
339.834 km
Semi-major axis
6,719.232 km
Eccentricity
0.00019
Inclination
97.2851°
RAAN
183.6674°
Arg. of periapsis
68.2521°
True anomaly
291.87444°
Mean anomaly
291.8944°
Eccentric anomaly
291.88442°
Mean motion
3.94061 °/min
Orbital period
91.36 mins
BSTAR
0.0016651
Loading maneuver chart data...
Computing Atmospheric mass density...
Loading historical data...
Loading historical data...
Loading historical data...
Loading historical data...
Loading historical data...
Loading historical data...
Loading historical data...

Documentation

Showing up to 5 results
|